Location: Mahannah Oil Field
(37.4664°N, 96.6003°W)
Time: 04:56:31
(UTC+00:00)

Courier 1B Rocket - Pass Details

Date: 23 January 2021
Orbit: 920 x 1202 km, 28.3° (Epoch: 05 March)

Event Time Altitude Azimuth Distance (km) Brightness Sun altitude
Rises 11:56:41 0° 213° (SSW) 3,643 7.8 -19.7°
Reaches altitude 10° 12:00:11 10° 195° (SSW) 2,745 7.3 -19.0°
Maximum altitude 12:04:27 18° 154° (SSE) 2,283 7.4 -18.2°
Drops below altitude 10° 12:08:53 10° 115° (ESE) 2,882 8.7 -17.3°
Sets 12:12:41 0° 97° (E) 3,899 10.0 -16.6°
